Vorticity
3 5 6 5 3 5 4 10 4 5 6 7 10 5 3 6 6 5 4 2 7 5 4 2 1 4 0 13 3 3 13 10 10 9 10 8 16 5 6 6 6 10 11
13 13 12 10 8 5 6 8 8 7 7 14 -2 12 13 -2 -21 38 50 3 6 21 7 9 4 14 22 10 14 -1 9 2 7 13 13 2 4 4 7 8 7 10 10
11 14 10 8 7 7 6 5 4 6 7 1 -2 35 -88 38 7 -8 33 35 15 -12 -1 19 7 11 0 -0 12 0 9 13 3 14 4 8 9 10 11 11 10 8 5
9 10 8 4 4 6 5 3 5 10 6 -1 2 -5 21 4 3 8 10 38 24 18 18 22 12 17 8 5 27 16 3 5 -6 11 10 6 11 10 8 8 8 9 8
1 3 6 2 3 8 6 7 7 -1 7 -1 13 12 8 -1 1 2 6 17 26 24 31 14 -5 10 15 21 20 9 5 13 36 1 6 13 13 6 7 10 11 3 9
3 1 3 3 1 6 4 7 1 4 -0 4 26 3 1 0 6 5 10 12 14 21 37 8 21 15 10 21 16 1 22 4 2 9 13 10 10 8 11 10 7 12 10
4 2 3 1 4 8 5 3 5 -4 11 8 3 6 3 5 1 2 7 15 16 6 11 8 10 21 9 14 18 14 6 7 10 18 9 9 7 8 11 9 9 13 9
11 11 7 4 2 -1 3 -1 -1 2 7 -1 7 5 1 2 6 6 8 16 15 11 6 13 11 14 7 8 8 8 7 11 14 10 7 4 7 12 7 7 5 10 11
8 9 14 12 5 5 2 -3 1 2 7 8 3 2 -3 1 8 12 5 6 20 14 16 12 9 10 5 10 8 10 12 13 10 8 5 3 8 13 6 9 6 6 13
10 9 8 14 13 10 5 1 10 11 6 2 3 4 -11 -2 13 9 4 7 19 13 10 13 9 9 9 11 12 13 16 13 10 6 6 10 13 7 6 12 5 12 13
7 5 1 0 3 5 7 4 8 3 7 0 11 7 -11 6 17 9 5 9 13 16 11 13 13 11 15 10 13 12 12 10 6 5 9 9 10 8 9 10 9 9 14
3 7 9 6 -2 -1 2 2 7 5 3 3 10 -2 -2 15 4 5 14 7 14 11 14 13 11 12 10 15 19 17 11 6 6 10 11 8 8 7 8 9 12 11 9
11 8 3 6 7 8 11 9 8 10 2 10 3 -8 11 11 4 14 12 8 11 13 11 15 12 17 7 15 11 10 6 3 6 10 6 5 6 9 12 4 4 8 10
19 23 8 12 10 11 12 -4 6 3 -3 3 -1 6 15 9 10 20 11 9 9 12 14 11 11 14 8 14 10 10 3 3 6 8 5 5 9 10 9 8 9 13 13
10 15 16 17 12 6 -1 2 2 3 2 9 14 13 6 11 11 20 7 12 10 12 13 11 11 13 10 15 9 9 4 2 5 8 8 6 8 11 10 8 9 12 13
11 10 6 12 17 16 15 16 15 18 15 10 6 -0 13 11 11 9 7 18 13 10 10 11 10 11 21 12 7 7 4 5 5 7 7 10 10 10 10 9 10 12 11
10 12 7 6 3 5 8 11 12 8 1 3 2 14 8 10 12 13 16 12 11 10 9 13 10 15 13 8 7 7 6 5 5 6 8 10 8 10 11 7 10 10 11
10 10 9 12 9 8 8 5 5 4 7 16 16 5 8 15 13 14 15 12 10 9 8 13 10 13 10 7 7 6 5 6 7 7 8 6 8 11 9 6 10 12 14
-3 30 15 10 15 17 13 16 13 15 12 12 8 14 19 12 20 7 12 11 11 8 10 11 10 11 9 8 6 6 6 7 6 6 8 9 10 10 8 8 11 13 13
18 3 12 12 17 20 19 20 26 19 17 15 17 15 10 22 17 14 11 12 11 8 8 12 8 11 9 8 8 6 7 6 9 10 9 9 11 10 8 9 14 13 15
8 11 15 17 15 17 18 16 13 14 15 17 14 19 16 6 28 -2 14 10 10 7 9 7 9 11 10 6 6 6 7 9 11 9 10 12 10 8 12 16 14 12 15
15 17 20 13 8 8 10 10 13 14 14 12 8 12 5 37 7 0 9 14 9 6 14 5 8 10 7 7 8 5 7 9 9 11 11 13 14 16 16 14 15 16 17
11 11 12 13 12 12 12 11 14 16 16 15 9 16 19 7 4 5 13 10 5 10 10 6 3 11 10 8 6 5 8 11 11 14 16 17 15 14 16 14 18 16 17
13 15 19 23 18 12 10 22 22 22 16 19 19 10 14 18 30 18 8 6 8 12 7 5 6 12 7 6 6 10 11 12 16 17 13 16 14 17 21 18 14 17 19
8 10 13 19 20 18 12 9 10 14 13 16 33 -2 16 12 9 8 8 10 13 7 7 7 18 5 3 7 10 10 13 16 12 15 23 24 18 16 14 19 22 15 18
6 6 13 8 13 13 11 8 11 17 15 4 25 22 7 15 5 6 7 7 15 6 -0 14 4 1 8 6 10 14 13 15 21 25 25 23 10 12 15 16 15 25 19
Height
5922 5922 5923 5924 5923 5922 5921 5921 5920 5919 5916 5914 5911 5909 5909 5908 5909 5909 5902 5896 5894 5895 5895 5892 5890 5889 5888 5885 5883 5882 5876 5872 5872 5870 5869 5869 5868 5866 5864 5864 5861 5859 5860
5921 5922 5922 5922 5922 5921 5921 5921 5920 5917 5914 5914 5909 5907 5900 5904 5907 5897 5887 5889 5887 5883 5885 5885 5884 5883 5881 5879 5877 5874 5872 5870 5868 5865 5863 5860 5858 5856 5855 5854 5853 5851 5849
5921 5921 5921 5920 5919 5920 5919 5919 5917 5915 5916 5913 5911 5903 5887 5895 5899 5893 5888 5881 5880 5877 5877 5877 5877 5877 5875 5872 5870 5868 5866 5866 5866 5862 5857 5855 5853 5850 5850 5850 5849 5847 5844
5920 5920 5920 5920 5920 5920 5918 5916 5915 5913 5912 5910 5902 5901 5894 5895 5893 5887 5882 5872 5872 5871 5869 5868 5869 5869 5867 5863 5861 5860 5858 5856 5856 5856 5852 5849 5847 5844 5842 5840 5839 5837 5834
5918 5918 5918 5919 5918 5917 5913 5912 5912 5910 5908 5905 5901 5895 5891 5892 5891 5884 5877 5873 5868 5863 5859 5861 5861 5861 5859 5857 5854 5855 5853 5850 5846 5846 5844 5841 5840 5837 5836 5833 5830 5828 5825
5916 5916 5917 5917 5917 5914 5910 5909 5908 5906 5904 5900 5897 5894 5891 5888 5885 5881 5876 5871 5865 5860 5856 5857 5855 5855 5853 5851 5850 5848 5845 5844 5841 5840 5838 5836 5833 5831 5829 5826 5822 5819 5817
5913 5913 5914 5913 5913 5911 5908 5905 5904 5904 5901 5899 5895 5889 5885 5886 5881 5876 5874 5870 5865 5860 5856 5855 5853 5851 5848 5845 5842 5840 5838 5837 5835 5834 5831 5829 5827 5824 5822 5817 5814 5809 5806
5908 5909 5909 5908 5908 5906 5903 5900 5899 5898 5898 5896 5894 5889 5885 5883 5879 5875 5870 5866 5862 5859 5855 5851 5850 5848 5845 5840 5838 5834 5832 5830 5828 5826 5824 5822 5819 5815 5812 5808 5804 5800 5795
5903 5903 5903 5902 5901 5900 5898 5895 5893 5894 5892 5890 5887 5885 5879 5879 5876 5870 5866 5862 5859 5856 5851 5849 5846 5844 5839 5836 5835 5829 5827 5825 5822 5819 5817 5814 5810 5807 5803 5800 5796 5792 5789
5895 5895 5895 5896 5895 5894 5892 5891 5888 5886 5887 5884 5882 5878 5871 5874 5870 5864 5860 5858 5854 5851 5844 5841 5841 5838 5836 5832 5827 5824 5823 5820 5817 5814 5812 5808 5805 5802 5797 5792 5789 5786 5781
5886 5886 5886 5887 5886 5885 5884 5883 5882 5879 5877 5876 5871 5868 5868 5865 5861 5857 5854 5851 5846 5840 5839 5837 5836 5833 5829 5824 5820 5818 5816 5814 5811 5808 5805 5803 5799 5794 5789 5784 5781 5777 5773
5878 5876 5875 5876 5876 5876 5875 5874 5875 5874 5871 5866 5863 5860 5860 5856 5852 5849 5846 5841 5839 5836 5835 5832 5829 5823 5819 5817 5815 5814 5811 5808 5805 5803 5799 5796 5792 5788 5783 5779 5775 5770 5765
5865 5865 5864 5866 5867 5867 5866 5866 5865 5864 5863 5861 5859 5857 5853 5849 5845 5842 5840 5836 5834 5831 5829 5825 5821 5817 5814 5811 5809 5808 5805 5803 5799 5797 5792 5788 5784 5781 5777 5772 5768 5762 5756
5854 5854 5854 5855 5856 5857 5857 5857 5857 5855 5854 5851 5850 5848 5846 5842 5838 5835 5832 5830 5828 5825 5822 5818 5814 5812 5810 5807 5805 5802 5800 5797 5793 5790 5786 5782 5779 5774 5769 5765 5759 5753 5748
5845 5843 5844 5844 5844 5845 5846 5846 5847 5846 5845 5844 5842 5839 5838 5834 5831 5828 5826 5824 5822 5819 5817 5813 5809 5806 5804 5801 5798 5795 5793 5789 5787 5783 5780 5775 5771 5767 5762 5756 5750 5744 5739
5833 5834 5834 5833 5834 5834 5835 5835 5835 5835 5835 5834 5832 5830 5828 5826 5824 5821 5819 5817 5816 5813 5811 5806 5803 5800 5797 5794 5791 5789 5786 5783 5779 5776 5774 5769 5764 5758 5752 5746 5741 5736 5730
5824 5824 5824 5824 5824 5824 5824 5824 5824 5824 5824 5823 5822 5821 5818 5818 5815 5813 5812 5810 5807 5806 5802 5799 5797 5794 5791 5787 5785 5782 5780 5776 5772 5769 5765 5760 5755 5749 5744 5739 5733 5727 5722
5809 5811 5813 5813 5813 5814 5813 5814 5813 5813 5813 5812 5812 5810 5808 5807 5806 5804 5804 5802 5800 5798 5794 5792 5790 5787 5784 5780 5778 5775 5772 5769 5765 5761 5756 5751 5745 5740 5735 5729 5724 5718 5713
5798 5799 5803 5804 5804 5804 5803 5802 5802 5802 5801 5801 5801 5799 5799 5798 5797 5797 5796 5795 5793 5791 5788 5786 5784 5781 5777 5775 5772 5769 5765 5762 5757 5752 5747 5741 5737 5732 5727 5721 5715 5709 5704
5784 5789 5792 5794 5794 5793 5793 5792 5791 5791 5791 5790 5790 5789 5790 5789 5788 5787 5788 5788 5787 5784 5782 5781 5778 5774 5771 5769 5765 5762 5758 5754 5748 5743 5738 5733 5728 5722 5716 5711 5705 5700 5696
5784 5784 5785 5785 5783 5783 5783 5783 5781 5780 5780 5780 5780 5781 5782 5781 5779 5779 5782 5781 5780 5778 5776 5774 5770 5768 5766 5762 5758 5755 5751 5746 5741 5736 5730 5724 5718 5711 5706 5700 5695 5691 5686
5779 5779 5778 5778 5776 5775 5774 5774 5775 5775 5772 5771 5772 5773 5773 5771 5772 5773 5775 5775 5773 5771 5769 5767 5765 5762 5759 5755 5751 5747 5743 5738 5732 5726 5719 5713 5707 5701 5696 5691 5686 5682 5678
5771 5771 5770 5769 5767 5766 5766 5767 5767 5767 5765 5762 5763 5764 5764 5766 5767 5768 5768 5769 5767 5765 5762 5760 5758 5756 5752 5748 5744 5739 5734 5728 5722 5715 5709 5703 5697 5692 5687 5682 5678 5673 5669
5765 5763 5762 5761 5760 5759 5760 5759 5758 5759 5757 5755 5756 5757 5757 5761 5762 5762 5762 5761 5761 5758 5756 5754 5753 5750 5746 5742 5737 5731 5725 5719 5713 5707 5700 5694 5688 5684 5679 5675 5670 5666 5662
5760 5759 5757 5756 5754 5752 5752 5752 5752 5753 5753 5749 5750 5752 5752 5755 5757 5756 5755 5755 5754 5753 5751 5751 5748 5744 5739 5735 5729 5723 5717 5711 5704 5697 5691 5686 5682 5677 5673 5669 5665 5661 5657
5756 5754 5751 5749 5747 5746 5746 5746 5747 5748 5747 5745 5744 5745 5748 5749 5751 5751 5751 5750 5750 5749 5749 5745 5741 5737 5732 5727 5722 5716 5710 5703 5696 5690 5685 5681 5677 5673 5669 5665 5661 5657 5653